EW9605 Weather Reports


Display with metric or nautical units.
time (UTC)temp
F
wind
direction
speed
MPH
gust
MPH
rain 1hr
in
rain 24hr
in
rain mn
in
humidity
%
barometer
mb
20260906193225 89 284 4.0 10.0 0.00 0.12 0.12 72 1010.5
20260906192723 89 269 1.0 4.0 0.00 0.12 0.12 72 1010.5
20260906192220 89 259 4.0 10.0 0.07 0.12 0.12 71 1010.5
20260906191718 89 294 0.0 6.0 0.07 0.12 0.12 73 1010.6
20260906191236 88 276 1.0 4.0 0.07 0.12 0.12 73 1010.8
20260906190724 88 271 2.0 8.0 0.07 0.12 0.12 74 1010.7
20260906190222 88 255 3.0 7.0 0.07 0.12 0.12 76 1010.8
20260906185719 87 236 1.0 7.0 0.07 0.12 0.12 79 1010.9
20260906185217 87 241 2.0 6.0 0.07 0.12 0.12 81 1010.8
20260906184725 86 256 1.0 7.0 0.07 0.12 0.12 82 1010.8
20260906184223 85 264 0.0 1.0 0.07 0.12 0.12 87 1010.6
20260906183721 84 0.0 0.0 0.09 0.12 0.12 87 1010.8
20260906183219 83 0.0 0.0 0.12 0.12 0.12 86 1010.8
20260906182716 84 0.0 0.0 0.12 0.12 0.12 84 1010.8
20260906182244 85 262 6.0 10.0 0.06 0.06 0.06 84 1011.0
20260906181723 85 260 0.0 4.0 0.06 0.06 0.06 83 1010.8
20260906181300 86 274 5.0 10.0 0.06 0.06 0.06 83 1011.1
20260906180717 85 232 0.0 1.0 0.06 0.06 0.06 85 1011.0
20260906180225 83 0.0 0.0 0.06 0.06 0.06 88 1011.1
20260906175722 82 0.0 0.0 0.06 0.06 0.06 86 1011.3
20260906175220 82 0.0 0.0 0.06 0.06 0.06 84 1011.2
20260906174718 82 0.0 0.0 0.06 0.06 0.06 82 1011.3
20260906174216 84 239 5.0 8.0 0.06 0.06 0.06 81 1011.5
20260906173723 87 308 11.0 17.0 0.03 0.03 0.03 76 1011.4
20260906173221 89 274 3.0 9.0 0.00 0.00 0.00 73 1011.4
20260906172719 91 272 5.0 11.0 0.00 0.00 0.00 68 1011.4
20260906172217 91 251 2.0 8.0 0.00 0.00 0.00 68 1011.3
20260906171724 91 271 2.0 6.0 0.00 0.00 0.00 69 1011.4
20260906171222 91 272 2.0 7.0 0.00 0.00 0.00 69 1011.3
20260906170719 91 276 3.0 8.0 0.00 0.00 0.00 67 1011.3
20260906170217 91 260 1.0 8.0 0.00 0.00 0.00 69 1011.5
20260906165725 90 257 0.0 3.0 0.00 0.00 0.00 68 1011.3
20260906165223 91 308 3.0 7.0 0.00 0.00 0.00 67 1011.4
20260906164721 90 258 3.0 8.0 0.00 0.00 0.00 69 1011.6
20260906164218 90 0.0 0.0 0.00 0.00 0.00 67 1011.5
20260906163716 90 268 0.0 3.0 0.00 0.00 0.00 66 1011.5
20260906163224 90 309 3.0 9.0 0.00 0.00 0.00 66 1011.7
20260906162722 90 236 1.0 6.0 0.00 0.00 0.00 68 1012.0
20260906162219 89 314 2.0 6.0 0.00 0.00 0.00 67 1011.9
20260906161717 89 310 0.0 4.0 0.00 0.00 0.00 68 1012.0
20260906161225 89 293 4.0 9.0 0.00 0.00 0.00 69 1012.2
20260906160723 89 310 0.0 1.0 0.00 0.00 0.00 72 1012.4
20260906160220 89 0.0 0.0 0.00 0.00 0.00 73 1012.2
20260906155718 89 0.0 0.0 0.00 0.00 0.00 73 1012.2
20260906155216 89 0.0 0.0 0.00 0.00 0.00 75 1012.3
20260906154724 88 0.0 0.0 0.00 0.00 0.00 75 1012.3
20260906154221 88 0.0 0.0 0.00 0.00 0.00 74 1012.3
20260906153719 88 54 1.0 3.0 0.00 0.00 0.00 74 1012.3
20260906153237 88 270 0.0 2.0 0.00 0.00 0.00 74 1012.4
20260906152725 88 0.0 0.0 0.00 0.00 0.00 74 1012.2
20260906152222 88 292 2.0 3.0 0.00 0.00 0.00 73 1012.2
20260906151720 88 0.0 0.0 0.00 0.00 0.00 74 1012.1
20260906151218 88 0.0 0.0 0.00 0.00 0.00 75 1012.2
20260906150716 88 0.0 0.0 0.00 0.00 0.00 74 1012.2
20260906150244 88 0.0 0.0 0.00 0.00 0.00 73 1012.4
20260906145721 88 0.0 0.0 0.00 0.00 0.00 74 1012.3
20260906145219 88 0.0 0.0 0.00 0.00 0.00 74 1012.4
20260906144717 87 0.0 0.0 0.00 0.00 0.00 76 1012.3
20260906144224 87 0.0 0.0 0.00 0.00 0.00 76 1012.3
20260906143722 87 0.0 0.0 0.00 0.00 0.00 78 1012.5
20260906143220 86 0.0 0.0 0.00 0.00 0.00 78 1012.3
20260906142717 86 0.0 0.0 0.00 0.00 0.00 78 1012.5
20260906142235 87 0.0 0.0 0.00 0.00 0.00 80 1012.4
20260906141723 86 0.0 0.0 0.00 0.00 0.00 79 1012.6
20260906141241 86 0.0 0.0 0.00 0.00 0.00 79 1012.4
20260906140718 86 0.0 0.0 0.00 0.00 0.00 78 1012.6
20260906140216 86 0.0 0.0 0.00 0.00 0.00 82 1012.5
20260906135804 85 0.0 0.0 0.00 0.00 0.00 81 1012.4
20260906135221 85 0.0 0.0 0.00 0.00 0.00 83 1012.5
20260906134739 85 97 0.0 1.0 0.00 0.00 0.00 84 1012.6
20260906134217 85 0.0 0.0 0.00 0.00 0.00 83 1012.6
20260906133724 84 0.0 0.0 0.00 0.00 0.00 83 1012.6
20260906133222 85 0.0 0.0 0.00 0.00 0.00 84 1012.6
20260906132720 84 0.0 0.0 0.00 0.00 0.00 85 1012.6
20260906132218 84 0.0 0.0 0.00 0.00 0.00 86 1012.5
20260906131715 84 0.0 0.0 0.00 0.00 0.00 87 1012.5
20260906131304 84 0.0 0.0 0.00 0.00 0.00 88 1012.5
20260906130721 84 0.0 0.0 0.00 0.00 0.00 89 1012.3
20260906130218 83 0.0 0.0 0.00 0.00 0.00 89 1012.2
20260906125716 83 0.0 0.0 0.00 0.00 0.00 90 1012.3
20260906125224 83 0.0 0.0 0.00 0.00 0.00 90 1012.2
20260906124721 83 0.0 0.0 0.00 0.00 0.00 91 1012.0
20260906124219 83 0.0 0.0 0.00 0.00 0.00 91 1012.2
20260906123717 82 0.0 0.0 0.00 0.00 0.00 92 1012.1
20260906123225 82 0.0 0.0 0.00 0.00 0.00 93 1012.0
20260906122723 82 0.0 0.0 0.00 0.00 0.00 93 1012.3
20260906122221 81 0.0 0.0 0.00 0.00 0.00 93 1012.1
20260906121819 81 0.0 0.0 0.00 0.00 0.00 94 1012.1
20260906121216 80 0.0 0.0 0.00 0.00 0.00 94 1012.1
20260906120724 80 0.0 0.0 0.00 0.00 0.00 94 1012.0
20260906120221 80 0.0 0.0 0.00 0.00 0.00 94 1012.0
20260906115719 80 0.0 0.0 0.00 0.00 0.00 95 1011.9
20260906115217 79 0.0 0.0 0.00 0.00 0.00 95 1011.8
20260906114724 79 0.0 0.0 0.00 0.00 0.00 95 1011.6
20260906114222 78 0.0 0.0 0.00 0.00 0.00 95 1011.5
20260906113720 78 0.0 0.0 0.00 0.00 0.00 95 1011.5
20260906113217 78 0.0 0.0 0.00 0.00 0.00 95 1011.4
20260906112725 77 0.0 0.0 0.00 0.00 0.00 94 1011.4
20260906112223 77 0.0 0.0 0.00 0.00 0.00 94 1011.4
20260906111720 77 0.0 0.0 0.00 0.00 0.00 94 1011.3
20260906111218 77 0.0 0.0 0.00 0.00 0.00 95 1011.2
20260906110716 77 0.0 0.0 0.00 0.00 0.00 94 1011.1
20260906110224 77 0.0 0.0 0.00 0.00 0.00 94 1011.2
20260906105721 77 0.0 0.0 0.00 0.00 0.00 94 1011.0
20260906105219 77 0.0 0.0 0.00 0.00 0.00 94 1010.9
20260906104737 77 0.0 0.0 0.00 0.00 0.00 94 1010.8
20260906104224 77 0.0 0.0 0.00 0.00 0.00 94 1010.7
20260906103722 77 0.0 0.0 0.00 0.00 0.00 94 1010.7
20260906103240 77 0.0 0.0 0.00 0.00 0.00 94 1010.5
20260906102738 77 0.0 0.0 0.00 0.00 0.00 94 1010.5
20260906102215 77 0.0 0.0 0.00 0.00 0.00 94 1010.5
20260906101723 78 0.0 0.0 0.00 0.00 0.00 94 1010.4
20260906101221 78 0.0 0.0 0.00 0.00 0.00 94 1010.3
20260906100719 78 0.0 0.0 0.00 0.00 0.00 94 1010.2
20260906100216 78 0.0 0.0 0.00 0.00 0.00 94 1010.0
20260906095724 78 0.0 0.0 0.00 0.00 0.00 94 1009.9
20260906095222 78 0.0 0.0 0.00 0.00 0.00 94 1009.8
20260906094719 78 0.0 0.0 0.00 0.00 0.00 94 1009.8
20260906094257 78 0.0 0.0 0.00 0.00 0.00 94 1009.8
20260906093725 78 0.0 0.0 0.00 0.00 0.00 94 1009.6
20260906093243 78 0.0 0.0 0.00 0.00 0.00 94 1009.8
20260906092721 78 0.0 0.0 0.00 0.00 0.00 94 1009.6
20260906092218 78 0.0 0.0 0.00 0.00 0.00 94 1009.7
20260906091715 78 0.0 0.0 0.00 0.00 0.00 93 1009.7
20260906091224 78 0.0 0.0 0.00 0.00 0.00 93 1009.6
20260906090741 78 0.0 0.0 0.00 0.00 0.00 93 1009.7
20260906090219 78 0.0 0.0 0.00 0.00 0.00 93 1009.8
20260906085716 77 0.0 0.0 0.00 0.00 0.00 93 1009.6
20260906085244 77 0.0 0.0 0.00 0.00 0.00 93 1009.6
20260906084722 77 0.0 0.0 0.00 0.00 0.00 93 1009.8
20260906084219 77 0.0 0.0 0.00 0.00 0.00 93 1009.7
20260906083717 77 0.0 0.0 0.00 0.00 0.00 93 1009.6
20260906083224 77 0.0 0.0 0.00 0.00 0.00 93 1009.7
20260906082723 77 0.0 0.0 0.00 0.00 0.00 93 1009.9
20260906082220 77 0.0 0.0 0.00 0.00 0.00 93 1010.2
20260906081718 77 0.0 0.0 0.00 0.00 0.00 93 1009.9
20260906081215 77 0.0 0.0 0.00 0.00 0.00 93 1010.1
20260906080743 77 0.0 0.0 0.00 0.00 0.00 92 1010.1
20260906080220 77 0.0 0.0 0.00 0.00 0.00 92 1010.0
20260906075718 77 0.0 0.0 0.00 0.00 0.00 92 1010.0
20260906075216 77 0.0 0.0 0.00 0.00 0.00 92 1010.1
20260906074724 77 0.0 0.0 0.00 0.00 0.00 92 1010.1
20260906074242 77 0.0 0.0 0.00 0.00 0.00 92 1010.1
20260906073719 78 0.0 0.0 0.00 0.00 0.00 92 1010.2
20260906073217 78 0.0 0.0 0.00 0.00 0.00 92 1010.2
20260906072724 78 0.0 0.0 0.00 0.00 0.00 92 1010.2
20260906072222 78 0.0 0.0 0.00 0.00 0.00 92 1010.4
20260906071719 78 0.0 0.0 0.00 0.00 0.00 92 1010.3
20260906071217 78 0.0 0.0 0.00 0.00 0.00 92 1010.4
20260906070725 78 0.0 0.0 0.00 0.00 0.00 92 1010.3
20260906070222 78 0.0 0.0 0.00 0.00 0.00 92 1010.5
20260906065720 78 0.0 0.0 0.00 0.00 0.00 91 1010.4
20260906065218 78 0.0 0.0 0.00 0.00 0.00 91 1010.5
20260906064715 78 0.0 0.0 0.00 0.00 0.00 91 1010.5
20260906064223 78 0.0 0.0 0.00 0.00 0.00 91 1010.5
20260906063741 78 0.0 0.0 0.00 0.00 0.00 91 1010.6
20260906063218 78 0.0 0.0 0.00 0.00 0.00 91 1010.7
20260906062716 78 0.0 0.0 0.00 0.00 0.00 91 1010.9
20260906062224 78 0.0 0.0 0.00 0.00 0.00 90 1011.1
20260906061721 79 0.0 0.0 0.00 0.00 0.00 90 1011.1
20260906061219 79 0.0 0.0 0.00 0.00 0.00 90 1011.2
20260906060757 79 0.0 0.0 0.00 0.00 0.00 90 1011.1
20260906060224 79 0.0 0.0 0.00 0.00 0.00 90 1011.0
20260906055722 79 0.0 0.0 0.00 0.00 0.00 89 1011.3
20260906055220 79 0.0 0.0 0.00 0.00 0.00 89 1011.4
20260906054718 79 0.0 0.0 0.00 0.00 0.00 89 1011.6
20260906054236 79 0.0 0.0 0.00 0.00 0.00 89 1011.4
20260906053725 79 0.0 0.0 0.00 0.00 0.00 89 1011.5
20260906053221 79 0.0 0.0 0.00 0.00 0.00 89 1011.7
20260906052739 79 0.0 0.0 0.00 0.00 0.00 89 1011.7
20260906052216 79 0.0 0.0 0.00 0.00 0.00 89 1011.7
20260906051724 79 0.0 0.0 0.00 0.00 0.00 89 1011.6
20260906051221 79 0.0 0.0 0.00 0.00 0.00 89 1011.6
20260906050719 79 0.0 0.0 0.00 0.00 0.00 89 1011.4
20260906050217 79 0.0 0.0 0.00 0.00 0.00 89 1011.4
20260906045725 79 0.0 0.0 0.00 0.00 0.00 89 1011.3
20260906045222 79 0.0 0.0 0.00 0.00 0.00 89 1011.2
20260906044720 79 0.0 0.0 0.00 0.00 0.00 89 1011.5
20260906044218 79 0.0 0.0 0.00 0.00 0.00 89 1011.7
20260906043715 79 0.0 0.0 0.00 0.00 0.00 89 1011.5
20260906043224 79 0.0 0.0 0.00 0.00 0.00 89 1011.5
20260906042720 79 0.0 0.0 0.00 0.00 0.00 89 1011.4
20260906042238 80 0.0 0.0 0.00 0.00 0.00 89 1011.5
20260906041716 80 0.0 0.0 0.00 0.00 0.00 89 1011.6
20260906041224 80 0.0 0.0 0.00 0.00 0.00 89 1011.7
20260906040721 80 0.0 0.0 0.00 0.00 0.00 89 1011.8
20260906040219 80 0.0 0.0 0.00 0.00 0.00 89 1011.9
20260906035737 80 0.0 0.0 0.00 0.00 0.00 88 1012.0
20260906035224 81 0.0 0.0 0.00 0.00 0.00 88 1011.9
20260906034722 81 0.0 0.0 0.00 0.00 0.00 88 1011.9
20260906034220 81 0.0 0.0 0.00 0.00 0.00 88 1011.9
20260906033718 81 0.0 0.0 0.00 0.00 0.00 86 1011.8
20260906033215 81 0.0 0.0 0.00 0.00 0.00 86 1011.8
20260906032723 81 0.0 0.0 0.00 0.00 0.00 86 1012.0
20260906032221 81 0.0 0.0 0.00 0.00 0.00 85 1011.8
20260906031718 81 0.0 0.0 0.00 0.00 0.00 85 1011.9
20260906031216 82 0.0 0.0 0.00 0.00 0.00 85 1011.7
20260906030724 82 0.0 0.0 0.00 0.00 0.00 84 1011.8
20260906030221 82 0.0 0.0 0.00 0.00 0.00 84 1012.0
20260906025719 82 0.0 0.0 0.00 0.00 0.00 83 1011.7
20260906025217 82 0.0 0.0 0.00 0.00 0.00 83 1012.0
20260906024724 82 0.0 0.0 0.00 0.00 0.00 83 1011.9
20260906024222 82 0.0 0.0 0.00 0.00 0.00 83 1011.9
20260906023720 82 0.0 0.0 0.00 0.00 0.00 83 1012.0
20260906023218 82 0.0 0.0 0.00 0.00 0.00 82 1012.1
20260906022716 82 0.0 0.0 0.00 0.00 0.00 82 1012.0
20260906022225 82 0.0 0.0 0.00 0.00 0.00 82 1012.1
20260906021721 82 0.0 0.0 0.00 0.00 0.00 82 1012.3
20260906021239 82 0.0 0.0 0.00 0.00 0.00 82 1012.3
20260906020716 82 0.0 0.0 0.00 0.00 0.00 82 1012.2
20260906020223 82 0.0 0.0 0.00 0.00 0.00 81 1012.1
20260906015721 82 0.0 0.0 0.00 0.00 0.00 81 1012.1
20260906015219 83 0.0 0.0 0.00 0.00 0.00 80 1012.3
20260906014717 83 0.0 0.0 0.00 0.00 0.00 80 1012.1
20260906014247 83 0.0 0.0 0.00 0.00 0.00 80 1011.8
20260906013722 84 0.0 0.0 0.00 0.00 0.00 79 1011.8
20260906013220 84 0.0 0.0 0.00 0.00 0.00 78 1011.6
20260906012717 84 0.0 0.0 0.00 0.00 0.00 78 1011.7
20260906012245 84 0.0 0.0 0.00 0.00 0.00 78 1011.6
20260906011743 84 0.0 0.0 0.00 0.00 0.00 78 1011.5
20260906011221 84 0.0 0.0 0.00 0.00 0.00 77 1011.3
20260906010718 84 0.0 0.0 0.00 0.00 0.00 77 1011.4
20260906010236 85 0.0 0.0 0.00 0.00 0.00 77 1011.3
20260906005724 85 0.0 0.0 0.00 0.00 0.00 77 1011.2
20260906005221 85 0.0 0.0 0.00 0.00 0.00 77 1011.3
20260906004719 85 0.0 0.0 0.00 0.00 0.00 76 1011.4
20260906004237 85 0.0 0.0 0.00 0.00 0.00 76 1011.4
20260906003724 85 0.0 0.0 0.00 0.00 0.00 76 1011.5
20260906003222 85 0.0 0.0 0.00 0.00 0.00 76 1011.5
20260906002720 85 0.0 0.0 0.00 0.00 0.00 76 1011.6
20260906002217 85 0.0 0.0 0.00 0.00 0.00 75 1011.4
20260906001715 85 0.0 0.0 0.00 0.00 0.00 75 1011.5
20260906001243 86 0.0 0.0 0.00 0.00 0.00 74 1011.3
20260906000720 86 0.0 0.0 0.00 0.00 0.00 74 1011.2
20260906000219 86 0.0 0.0 0.00 0.00 0.00 74 1011.3
20260905235716 86 0.0 0.0 0.00 0.00 0.00 74 1011.3
20260905235224 86 0.0 0.0 0.00 0.00 0.00 73 1011.3
20260905234722 86 320 0.0 1.0 0.00 0.00 0.00 73 1011.2
20260905234219 87 0.0 0.0 0.00 0.00 0.00 73 1011.3
20260905233717 87 317 2.0 7.0 0.00 0.00 0.00 73 1011.2
20260905233225 88 263 0.0 3.0 0.00 0.00 0.00 72 1011.1
20260905232723 88 274 1.0 7.0 0.00 0.00 0.00 70 1011.1
20260905232220 89 309 0.0 3.0 0.00 0.00 0.00 69 1011.2
20260905231726 89 302 2.0 7.0 0.00 0.00 0.00 69 1011.0
20260905231216 90 301 2.0 7.0 0.00 0.00 0.00 68 1011.2
20260905230723 90 306 2.0 7.0 0.00 0.00 0.00 68 1011.2
20260905230241 90 302 0.0 2.0 0.00 0.00 0.00 68 1011.3
20260905225719 90 296 0.0 3.0 0.00 0.00 0.00 67 1011.3
20260905225216 90 287 2.0 9.0 0.00 0.00 0.00 66 1011.3
20260905224724 90 251 1.0 6.0 0.00 0.00 0.00 66 1011.1
20260905224222 91 302 3.0 7.0 0.00 0.00 0.00 66 1011.1
20260905223720 91 328 3.0 6.0 0.00 0.00 0.00 66 1011.1
20260905223217 91 300 5.0 10.0 0.00 0.00 0.00 66 1010.8
20260905222715 91 268 2.0 8.0 0.00 0.00 0.00 66 1011.1
20260905222223 91 304 4.0 8.0 0.00 0.00 0.00 68 1011.1
20260905221721 91 0.0 0.0 0.00 0.00 0.00 68 1011.1
20260905221219 91 277 1.0 6.0 0.00 0.00 0.00 67 1011.2
20260905220716 90 314 2.0 7.0 0.00 0.00 0.00 67 1011.2
20260905220224 91 304 1.0 3.0 0.00 0.00 0.00 68 1011.0
20260905215742 91 288 2.0 4.0 0.00 0.00 0.00 69 1010.9
20260905215220 91 296 1.0 3.0 0.00 0.00 0.00 68 1011.0
20260905214717 91 314 3.0 8.0 0.00 0.00 0.00 67 1010.9
20260905214225 92 277 3.0 7.0 0.00 0.00 0.00 65 1010.9
20260905213723 91 299 4.0 7.0 0.00 0.00 0.00 63 1010.8
20260905213221 91 308 3.0 9.0 0.00 0.00 0.00 66 1010.8
20260905212718 92 299 7.0 11.0 0.00 0.00 0.00 64 1010.8
20260905212216 92 291 4.0 8.0 0.00 0.00 0.00 64 1010.7
20260905211724 91 299 5.0 9.0 0.00 0.00 0.00 65 1010.7
20260905211222 91 330 3.0 15.0 0.00 0.00 0.00 65 1010.9
20260905210721 92 287 4.0 7.0 0.00 0.00 0.00 64 1011.0
20260905210217 92 253 2.0 7.0 0.00 0.00 0.00 64 1010.9
20260905205725 92 257 0.0 6.0 0.00 0.00 0.00 65 1010.9
20260905205242 92 228 3.0 6.0 0.00 0.00 0.00 65 1011.0
20260905204721 92 235 4.0 8.0 0.00 0.00 0.00 65 1010.7
20260905204238 92 264 2.0 6.0 0.00 0.00 0.00 66 1010.8
20260905203716 92 284 5.0 13.0 0.00 0.00 0.00 66 1010.8
20260905203243 91 274 5.0 7.0 0.00 0.00 0.00 66 1010.8
20260905202741 92 269 7.0 13.0 0.00 0.00 0.00 64 1010.8
20260905202219 92 273 2.0 7.0 0.00 0.00 0.00 64 1010.8
20260905201717 91 273 2.0 9.0 0.00 0.00 0.00 65 1010.8
20260905201225 92 240 4.0 10.0 0.00 0.00 0.00 64 1010.9
20260905200722 92 258 5.0 8.0 0.00 0.00 0.00 65 1010.9
20260905200220 92 241 8.0 11.0 0.00 0.00 0.00 63 1010.9
20260905195718 92 283 8.0 11.0 0.00 0.00 0.00 64 1010.9
20260905195216 92 246 6.0 11.0 0.00 0.00 0.00 63 1011.0
20260905194724 92 245 4.0 10.0 0.00 0.00 0.00 63 1011.1
20260905194222 92 254 4.0 8.0 0.00 0.00 0.00 63 1011.3
20260905193739 91 280 4.0 7.0 0.00 0.00 0.00 64 1011.2